Location: Azul
(36.7830°S, 59.8500°W)
Time: 10:00:00
(UTC-03:00)

CUTE-I - Visible Passes

Search period start: 17 September 2024 00:00
Search period end: 27 September 2024 00:00
Orbit: 807 x 820 km, 98.7° (Epoch: 16 September)

Date Brightness Start Highest point End Pass type
(mag) Time Alt. Az. Time Alt. Az. Time Alt. Az.
17 Sep ? 05:37:03 10° NE 05:41:34 29° ESE 05:46:05 10° S visible
17 Sep ? 19:34:35 10° S 19:39:56 69° WSW 19:45:15 10° NNW visible
18 Sep ? 05:15:37 10° ENE 05:19:08 18° ESE 05:22:41 10° SSE visible
18 Sep ? 19:11:55 10° SSE 19:17:18 74° ENE 19:22:39 10° N visible
18 Sep ? 20:54:01 10° SSW 20:56:34 14° WSW 20:59:06 10° W visible
19 Sep ? 04:55:21 10° ESE 04:56:48 11° ESE 04:58:16 10° SE visible
19 Sep ? 20:30:11 10° SSW 20:34:12 22° WSW 20:38:11 10° WNW visible
20 Sep ? 06:08:08 10° NNE 06:13:19 57° ESE 06:18:34 10° S visible
20 Sep ? 20:06:56 10° S 20:11:45 34° WSW 20:16:32 10° NW visible
21 Sep ? 05:46:02 10° NE 05:50:47 35° ESE 05:55:36 10° S visible
21 Sep ? 19:43:57 10° S 19:49:13 56° WSW 19:54:26 10° NNW visible
22 Sep ? 05:24:21 10° ENE 05:28:21 22° ESE 05:32:21 10° SSE visible
22 Sep ? 19:21:11 10° SSE 19:26:37 90° ENE 19:31:58 10° NNW visible
22 Sep ? 21:04:19 10° SW 21:05:43 11° WSW 21:07:08 10° WSW visible
23 Sep ? 05:03:23 10° E 05:05:58 14° ESE 05:08:32 10° SSE visible
23 Sep ? 20:39:50 10° SSW 20:43:23 18° WSW 20:46:54 10° WNW visible
24 Sep ? 20:16:25 10° S 20:20:57 28° WSW 20:25:28 10° NW visible
25 Sep ? 05:55:02 10° NE 06:00:00 42° ESE 06:05:02 10° S visible
25 Sep ? 19:53:19 10° S 19:58:27 46° WSW 20:03:31 10° NW visible
26 Sep ? 05:33:09 10° ENE 05:37:30 26° ESE 05:41:54 10° SSE visible
26 Sep ? 19:30:28 10° S 19:35:51 75° WSW 19:41:12 10° NNW visible
